User: anonymous   Login
Location: Unspecified
(0.0000°N, 0.0000°E)
Time: 00:29:58
(UTC+00:00)
Language:

LITUANICASAT 2 - Orbit

View from above orbital plane
View from above orbital plane
View from above satellite
View from above satellite

Ground track
Ground track

The orbit data is extracted from the following two-line orbital elements,

1 42768U 17036D   21023.79906033  .00002519  00000-0  10281-3 0  9991
2 42768  97.2795  78.2134 0012941 323.1107  36.9239 15.25254623199418
Epoch (UTC): 23 January 2021 19:10:38
Eccentricity: 0.0012941
inclination: 97.2795°
perigee height: 481 km
apogee height: 499 km
right ascension of ascending node: 78.2134°
argument of perigee: 323.1107°
revolutions per day: 15.25254623
mean anomaly at epoch: 36.9239°
orbit number at epoch: 19941

The dashed part of the orbit path shows where the satellite is in the earth's shadow,  

DLR